Location: Amarillo Post Office Jordan Station
(35.1907°N, 101.9342°W)
Time: 13:48:56
(UTC+00:00)

CZ-2C R/B - Pass Details

Date: 24 January 2021
Orbit: 389 x 584 km, 35.0° (Epoch: 03 March)

Event Time Altitude Azimuth Distance (km) Brightness Sun altitude
Exits shadow 12:50:48 19° 272° (W) 1,345 2.7 -12.6°
Maximum altitude 12:53:47 88° 185° (S) 538 1.2 -12.1°
Drops below altitude 10° 12:57:46 10° 94° (E) 1,724 5.3 -11.3°
Sets 12:59:55 0° 94° (E) 2,573 6.7 -10.9°
